| time (UTC) | temp F | wind direction | speed knots | gust knots | rain 1hr in | rain 24hr in | rain mn in | humidity % | barometer mb |
| 20260507080030 | 56 | 328 | 5.2 | 11.3 | 0.00 | 0.00 | 0.00 | 71 | 1018.6 |
| 20260507075031 | 55 | 319 | 4.3 | 11.3 | 0.00 | 0.00 | 0.00 | 73 | 1018.5 |
| 20260507074023 | 55 | 357 | 2.6 | 6.1 | 0.00 | 0.00 | 0.00 | 72 | 1018.6 |
| 20260507073032 | 54 | 327 | 2.6 | 3.5 | 0.00 | 0.00 | 0.00 | 75 | 1018.6 |
| 20260507072032 | 54 | 336 | 1.7 | 2.6 | 0.00 | 0.00 | 0.00 | 75 | 1018.4 |
| 20260507071039 | 54 | 34 | 0.0 | 0.9 | 0.00 | 0.00 | 0.00 | 75 | 1018.4 |
| 20260507070021 | 53 | 354 | 0.9 | 2.6 | 0.00 | 0.00 | 0.00 | 75 | 1018.2 |
| 20260507065050 | 53 | 359 | 0.9 | 1.7 | 0.00 | 0.00 | 0.00 | 74 | 1018.2 |
| 20260507064023 | 52 | 331 | 0.9 | 0.9 | 0.00 | 0.00 | 0.00 | 77 | 1018.3 |
| 20260507063029 | 51 | 69 | 0.0 | 1.7 | 0.00 | 0.00 | 0.00 | 79 | 1018.3 |
| 20260507062028 | 52 | 21 | 0.9 | 1.7 | 0.00 | 0.00 | 0.00 | 77 | 1018.3 |
| 20260507061021 | 51 | 338 | 1.7 | 2.6 | 0.00 | 0.00 | 0.00 | 80 | 1018.2 |
| 20260507060041 | 51 | 314 | 0.9 | 1.7 | 0.00 | 0.00 | 0.00 | 80 | 1018.1 |
| 20260507055028 | 50 | 321 | 0.9 | 1.7 | 0.00 | 0.00 | 0.00 | 82 | 1018.1 |
| 20260507054044 | 50 | 325 | 1.7 | 1.7 | 0.00 | 0.00 | 0.00 | 82 | 1018.0 |
| 20260507053028 | 50 | 0.0 | 0.0 | 0.00 | 0.00 | 0.00 | 82 | 1017.8 | |
| 20260507052023 | 50 | 176 | 0.9 | 1.7 | 0.00 | 0.00 | 0.00 | 82 | 1017.7 |
| 20260507051031 | 49 | 0.0 | 0.0 | 0.00 | 0.00 | 0.00 | 83 | 1017.8 | |
| 20260507050052 | 49 | 324 | 0.0 | 0.9 | 0.00 | 0.00 | 0.00 | 83 | 1017.8 |
| 20260507045029 | 49 | 196 | 0.0 | 0.9 | 0.00 | 0.00 | 0.00 | 82 | 1017.7 |
| 20260507044044 | 49 | 158 | 0.9 | 1.7 | 0.00 | 0.00 | 0.00 | 83 | 1017.6 |
| 20260507043032 | 48 | 282 | 0.0 | 0.9 | 0.00 | 0.00 | 0.00 | 84 | 1017.4 |
| 20260507042033 | 47 | 212 | 0.9 | 1.7 | 0.00 | 0.00 | 0.00 | 85 | 1017.2 |
| 20260507041015 | 47 | 94 | 0.9 | 1.7 | 0.00 | 0.00 | 0.00 | 86 | 1017.2 |
| 20260507040022 | 48 | 196 | 0.9 | 0.9 | 0.00 | 0.00 | 0.00 | 85 | 1017.0 |
| 20260507035032 | 47 | 122 | 1.7 | 2.6 | 0.00 | 0.00 | 0.00 | 86 | 1017.0 |
| 20260507034021 | 47 | 2 | 0.9 | 0.9 | 0.00 | 0.00 | 0.00 | 85 | 1016.9 |
| 20260507033028 | 47 | 329 | 0.9 | 0.9 | 0.00 | 0.00 | 0.00 | 86 | 1016.8 |
| 20260507032052 | 48 | 329 | 0.0 | 0.9 | 0.00 | 0.00 | 0.00 | 84 | 1017.0 |
| 20260507031019 | 47 | 327 | 0.9 | 1.7 | 0.00 | 0.00 | 0.00 | 84 | 1016.9 |
| 20260507030021 | 47 | 329 | 0.0 | 1.7 | 0.00 | 0.00 | 0.00 | 84 | 1016.9 |
| 20260507025016 | 47 | 0.0 | 0.0 | 0.00 | 0.00 | 0.00 | 85 | 1016.8 | |
| 20260507024023 | 48 | 329 | 0.0 | 0.9 | 0.00 | 0.00 | 0.00 | 84 | 1016.7 |
| 20260507023032 | 48 | 0.0 | 0.0 | 0.00 | 0.00 | 0.00 | 83 | 1016.7 | |
| 20260507022032 | 48 | 0.0 | 0.0 | 0.00 | 0.00 | 0.00 | 83 | 1016.8 | |
| 20260507021019 | 48 | 331 | 0.9 | 1.7 | 0.00 | 0.00 | 0.00 | 83 | 1016.7 |
| 20260507020032 | 48 | 331 | 0.9 | 1.7 | 0.00 | 0.00 | 0.00 | 82 | 1016.6 |
| 20260507015039 | 48 | 329 | 0.9 | 1.7 | 0.00 | 0.00 | 0.00 | 81 | 1016.5 |
| 20260507014020 | 48 | 0.0 | 0.0 | 0.00 | 0.00 | 0.00 | 81 | 1016.4 | |
| 20260507013029 | 49 | 0.0 | 0.0 | 0.00 | 0.00 | 0.00 | 81 | 1016.4 | |
| 20260507012044 | 49 | 320 | 0.9 | 1.7 | 0.00 | 0.00 | 0.00 | 80 | 1016.4 |
| 20260507011019 | 48 | 0.0 | 0.0 | 0.00 | 0.00 | 0.00 | 81 | 1016.3 | |
| 20260507010021 | 49 | 319 | 0.0 | 0.9 | 0.00 | 0.00 | 0.00 | 81 | 1016.3 |
| 20260507005029 | 49 | 323 | 0.0 | 0.9 | 0.00 | 0.00 | 0.00 | 82 | 1016.3 |
| 20260507004023 | 49 | 39 | 0.0 | 1.7 | 0.00 | 0.00 | 0.00 | 82 | 1016.0 |
| 20260507003027 | 50 | 343 | 0.0 | 0.9 | 0.00 | 0.00 | 0.00 | 79 | 1015.9 |
| 20260507002032 | 50 | 71 | 0.0 | 0.9 | 0.00 | 0.00 | 0.00 | 79 | 1016.0 |
| 20260507001039 | 50 | 30 | 0.0 | 0.9 | 0.00 | 0.00 | 0.00 | 77 | 1016.0 |
| 20260507000022 | 51 | 318 | 0.0 | 1.7 | 0.00 | 0.00 | 0.00 | 75 | 1016.0 |
| 20260506235029 | 52 | 324 | 0.9 | 1.7 | 0.00 | 0.00 | 0.00 | 75 | 1015.9 |
| 20260506234023 | 51 | 340 | 0.9 | 1.7 | 0.00 | 0.00 | 0.00 | 76 | 1016.0 |
| 20260506233034 | 52 | 341 | 0.9 | 1.7 | 0.00 | 0.00 | 0.00 | 76 | 1016.0 |
| 20260506232032 | 52 | 342 | 0.0 | 0.9 | 0.00 | 0.00 | 0.00 | 76 | 1015.9 |
| 20260506231036 | 52 | 236 | 0.9 | 1.7 | 0.00 | 0.00 | 0.00 | 76 | 1016.0 |
| 20260506230040 | 52 | 87 | 0.9 | 1.7 | 0.00 | 0.00 | 0.00 | 75 | 1015.9 |
| 20260506225029 | 53 | 0.0 | 0.0 | 0.00 | 0.00 | 0.00 | 69 | 1015.9 | |
| 20260506224023 | 53 | 347 | 0.0 | 0.9 | 0.00 | 0.00 | 0.00 | 69 | 1015.7 |
| 20260506223031 | 54 | 347 | 0.0 | 0.9 | 0.00 | 0.00 | 0.00 | 69 | 1015.6 |
| 20260506222046 | 53 | 342 | 0.9 | 1.7 | 0.00 | 0.00 | 0.00 | 71 | 1015.7 |
| 20260506221029 | 53 | 24 | 0.0 | 0.9 | 0.00 | 0.00 | 0.00 | 73 | 1015.5 |
| 20260506220024 | 53 | 24 | 0.0 | 0.9 | 0.00 | 0.00 | 0.00 | 73 | 1015.3 |
| 20260506215016 | 54 | 64 | 0.9 | 1.7 | 0.00 | 0.00 | 0.00 | 70 | 1015.3 |
| 20260506214024 | 55 | 308 | 0.9 | 2.6 | 0.00 | 0.00 | 0.00 | 67 | 1015.2 |
| 20260506213031 | 55 | 324 | 2.6 | 3.5 | 0.00 | 0.00 | 0.00 | 68 | 1015.1 |
| 20260506212032 | 56 | 336 | 1.7 | 3.5 | 0.00 | 0.00 | 0.00 | 67 | 1015.1 |
| 20260506211018 | 56 | 334 | 3.5 | 6.1 | 0.00 | 0.00 | 0.00 | 66 | 1014.8 |
| 20260506210021 | 56 | 346 | 1.7 | 5.2 | 0.00 | 0.00 | 0.00 | 67 | 1014.8 |
| 20260506205019 | 57 | 333 | 4.3 | 11.3 | 0.00 | 0.00 | 0.00 | 65 | 1014.6 |
| 20260506204023 | 57 | 329 | 4.3 | 9.6 | 0.00 | 0.00 | 0.00 | 65 | 1014.5 |
| 20260506203048 | 57 | 330 | 3.5 | 7.0 | 0.00 | 0.00 | 0.00 | 66 | 1014.3 |
| 20260506202052 | 58 | 331 | 6.1 | 9.6 | 0.00 | 0.00 | 0.00 | 65 | 1014.2 |
| 20260506201029 | 58 | 329 | 6.1 | 7.8 | 0.00 | 0.00 | 0.00 | 66 | 1014.1 |
| 20260506200023 | 58 | 324 | 5.2 | 11.3 | 0.00 | 0.00 | 0.00 | 67 | 1013.8 |
| 20260506195032 | 58 | 321 | 4.3 | 7.0 | 0.00 | 0.00 | 0.00 | 66 | 1013.5 |
| 20260506194027 | 59 | 314 | 2.6 | 6.1 | 0.00 | 0.00 | 0.00 | 64 | 1013.2 |
| 20260506193031 | 59 | 303 | 2.6 | 3.5 | 0.00 | 0.00 | 0.00 | 63 | 1013.1 |
| 20260506192029 | 59 | 339 | 3.5 | 7.8 | 0.00 | 0.00 | 0.00 | 61 | 1012.9 |
| 20260506191029 | 59 | 327 | 5.2 | 9.6 | 0.00 | 0.00 | 0.00 | 60 | 1012.6 |
| 20260506190047 | 58 | 317 | 2.6 | 5.2 | 0.00 | 0.00 | 0.00 | 60 | 1012.4 |
| 20260506185026 | 59 | 359 | 1.7 | 2.6 | 0.00 | 0.00 | 0.00 | 57 | 1012.1 |
| 20260506184026 | 58 | 323 | 3.5 | 6.1 | 0.00 | 0.00 | 0.00 | 58 | 1011.7 |
| 20260506183028 | 59 | 315 | 1.7 | 2.6 | 0.00 | 0.00 | 0.00 | 58 | 1011.4 |
| 20260506182027 | 61 | 356 | 1.7 | 3.5 | 0.00 | 0.00 | 0.00 | 55 | 1011.4 |
| 20260506181029 | 62 | 183 | 0.9 | 3.5 | 0.00 | 0.00 | 0.00 | 51 | 1011.3 |
| 20260506180029 | 63 | 161 | 2.6 | 5.2 | 0.00 | 0.00 | 0.00 | 52 | 1011.2 |
| 20260506175019 | 63 | 160 | 3.5 | 7.0 | 0.00 | 0.00 | 0.00 | 51 | 1011.2 |
| 20260506174040 | 64 | 158 | 6.1 | 8.7 | 0.00 | 0.00 | 0.00 | 52 | 1011.1 |
| 20260506173029 | 64 | 155 | 6.1 | 8.7 | 0.00 | 0.00 | 0.00 | 50 | 1010.9 |
| 20260506172024 | 64 | 163 | 4.3 | 7.8 | 0.00 | 0.00 | 0.00 | 52 | 1010.9 |
| 20260506171028 | 64 | 167 | 5.2 | 11.3 | 0.00 | 0.00 | 0.00 | 51 | 1010.7 |
| 20260506170032 | 65 | 142 | 5.2 | 8.7 | 0.00 | 0.00 | 0.00 | 51 | 1010.4 |
| 20260506165016 | 66 | 155 | 7.0 | 11.3 | 0.00 | 0.00 | 0.00 | 46 | 1010.3 |
| 20260506164052 | 65 | 173 | 4.3 | 13.0 | 0.00 | 0.00 | 0.00 | 49 | 1010.3 |
| 20260506163016 | 66 | 170 | 6.1 | 11.3 | 0.00 | 0.00 | 0.00 | 48 | 1010.3 |
| 20260506162027 | 66 | 157 | 6.1 | 9.6 | 0.00 | 0.00 | 0.00 | 49 | 1010.6 |
| 20260506161021 | 65 | 173 | 7.8 | 13.0 | 0.00 | 0.00 | 0.00 | 50 | 1010.5 |
| 20260506160021 | 65 | 155 | 7.8 | 14.8 | 0.00 | 0.00 | 0.00 | 50 | 1010.5 |
| 20260506155208 | 65 | 157 | 9.6 | 14.8 | 0.00 | 0.00 | 0.00 | 50 | 1010.6 |
| 20260506154032 | 66 | 161 | 11.3 | 19.1 | 0.00 | 0.00 | 0.00 | 49 | 1010.7 |
| 20260506153032 | 67 | 148 | 8.7 | 14.8 | 0.00 | 0.00 | 0.00 | 46 | 1010.3 |
| 20260506152027 | 69 | 154 | 8.7 | 13.9 | 0.00 | 0.00 | 0.00 | 42 | 1009.9 |
| 20260506151028 | 69 | 215 | 4.3 | 7.8 | 0.00 | 0.00 | 0.00 | 42 | 1009.7 |
| 20260506150032 | 70 | 207 | 5.2 | 12.2 | 0.00 | 0.00 | 0.00 | 40 | 1009.7 |
| 20260506145028 | 70 | 153 | 5.2 | 8.7 | 0.00 | 0.00 | 0.00 | 40 | 1009.4 |
| 20260506144021 | 71 | 153 | 6.1 | 8.7 | 0.00 | 0.00 | 0.00 | 41 | 1009.2 |
| 20260506143032 | 71 | 91 | 2.6 | 5.2 | 0.00 | 0.00 | 0.00 | 39 | 1009.1 |
| 20260506142104 | 72 | 153 | 4.3 | 7.8 | 0.00 | 0.00 | 0.00 | 37 | 1009.2 |
| 20260506141032 | 74 | 329 | 1.7 | 6.1 | 0.00 | 0.00 | 0.00 | 36 | 1009.1 |
| 20260506140033 | 72 | 188 | 2.6 | 2.6 | 0.00 | 0.00 | 0.00 | 38 | 1009.3 |
| 20260506135029 | 72 | 181 | 2.6 | 7.8 | 0.00 | 0.00 | 0.00 | 38 | 1009.4 |
| 20260506134027 | 70 | 334 | 2.6 | 13.0 | 0.00 | 0.00 | 0.00 | 41 | 1009.5 |
| 20260506133032 | 71 | 316 | 3.5 | 9.6 | 0.00 | 0.00 | 0.00 | 39 | 1009.6 |
| 20260506132044 | 71 | 309 | 4.3 | 8.7 | 0.00 | 0.00 | 0.00 | 38 | 1009.7 |
| 20260506131032 | 71 | 135 | 3.5 | 9.6 | 0.00 | 0.00 | 0.00 | 39 | 1009.5 |
| 20260506130024 | 72 | 131 | 3.5 | 8.7 | 0.00 | 0.00 | 0.00 | 38 | 1009.3 |
| 20260506125048 | 70 | 119 | 3.5 | 7.0 | 0.00 | 0.00 | 0.00 | 39 | 1009.3 |
| 20260506124033 | 71 | 151 | 4.3 | 7.8 | 0.00 | 0.00 | 0.00 | 40 | 1009.5 |
| 20260506123023 | 70 | 130 | 3.5 | 7.0 | 0.00 | 0.00 | 0.00 | 41 | 1009.5 |
| 20260506122024 | 70 | 149 | 6.1 | 9.6 | 0.00 | 0.00 | 0.00 | 40 | 1009.6 |
| 20260506121032 | 71 | 292 | 1.7 | 5.2 | 0.00 | 0.00 | 0.00 | 38 | 1009.8 |
| 20260506120032 | 69 | 142 | 4.3 | 7.8 | 0.00 | 0.00 | 0.00 | 41 | 1009.9 |
| 20260506115016 | 69 | 211 | 6.1 | 11.3 | 0.00 | 0.00 | 0.00 | 41 | 1010.5 |
| 20260506114053 | 70 | 141 | 7.0 | 14.8 | 0.00 | 0.00 | 0.00 | 41 | 1010.0 |
| 20260506113037 | 70 | 144 | 6.1 | 12.2 | 0.00 | 0.00 | 0.00 | 40 | 1009.9 |
| 20260506112033 | 69 | 147 | 6.1 | 8.7 | 0.00 | 0.00 | 0.00 | 41 | 1010.3 |
| 20260506111032 | 69 | 131 | 6.1 | 11.3 | 0.00 | 0.00 | 0.00 | 41 | 1010.2 |
| 20260506110032 | 69 | 148 | 6.1 | 7.0 | 0.00 | 0.00 | 0.00 | 42 | 1010.4 |
| 20260506105032 | 68 | 146 | 7.8 | 12.2 | 0.00 | 0.00 | 0.00 | 42 | 1010.5 |
| 20260506104041 | 67 | 155 | 7.8 | 11.3 | 0.00 | 0.00 | 0.00 | 43 | 1010.7 |
| 20260506103016 | 67 | 150 | 7.0 | 11.3 | 0.00 | 0.00 | 0.00 | 44 | 1010.8 |
| 20260506102034 | 67 | 158 | 6.1 | 11.3 | 0.00 | 0.00 | 0.00 | 44 | 1011.0 |
| 20260506101053 | 67 | 147 | 7.8 | 11.3 | 0.00 | 0.00 | 0.00 | 46 | 1011.3 |
| 20260506100041 | 66 | 147 | 6.1 | 9.6 | 0.00 | 0.00 | 0.00 | 46 | 1011.6 |
| 20260506095016 | 65 | 158 | 7.0 | 11.3 | 0.00 | 0.00 | 0.00 | 49 | 1011.7 |
| 20260506094032 | 65 | 168 | 7.0 | 11.3 | 0.00 | 0.00 | 0.00 | 49 | 1012.0 |
| 20260506093029 | 62 | 153 | 8.7 | 16.5 | 0.00 | 0.00 | 0.00 | 58 | 1012.0 |
| 20260506092027 | 61 | 143 | 2.6 | 7.8 | 0.00 | 0.00 | 0.00 | 63 | 1012.1 |
| 20260506091032 | 61 | 163 | 2.6 | 3.5 | 0.00 | 0.00 | 0.00 | 63 | 1012.2 |
| 20260506090027 | 61 | 129 | 0.9 | 2.6 | 0.00 | 0.00 | 0.00 | 63 | 1012.1 |
| 20260506085029 | 61 | 358 | 0.9 | 1.7 | 0.00 | 0.00 | 0.00 | 62 | 1011.8 |
| 20260506084028 | 60 | 32 | 1.7 | 3.5 | 0.00 | 0.00 | 0.00 | 64 | 1011.7 |
| 20260506083032 | 61 | 357 | 1.7 | 3.5 | 0.00 | 0.00 | 0.00 | 61 | 1011.7 |
| 20260506082029 | 61 | 72 | 0.0 | 1.7 | 0.00 | 0.00 | 0.00 | 60 | 1011.9 |
| 20260506081029 | 60 | 56 | 1.7 | 2.6 | 0.00 | 0.00 | 0.00 | 62 | 1011.9 |